Weather History for Klawock, AK

Change the Weather History Date:

Tuesday, February 25, 2014

  Actual Average Record
Temperature  
Mean Temperature 36 °F -  
Max Temperature 42 °F 40 °F 46 °F (2004)
Min Temperature 30 °F 30 °F 16 °F (2011)
Degree Days  
Heating Degree Days 29    
Moisture  
Dew Point 21 °F    
Average Humidity 52    
Maximum Humidity 57    
Minimum Humidity 43    
Precipitation  
Precipitation 0.00 in - - ()
Sea Level Pressure  
Sea Level Pressure 30.07 in    
Wind  
Wind Speed 8 mph (NE)    
Max Wind Speed 13 mph    
Max Gust Speed 16 mph    
Visibility 10 miles    
Events      
Averages and records for this station are not official NWS values.
T = Trace of Precipitation, MM = Missing Value Source: NWS Daily Summary

Daily Weather History Graph

Daily Weather History Graph

Search for Another Location

Airport:

Trip Planner

Search our weather history database for the weather conditions in past years. The results will help you decide how hot, cold, wet, or windy it might be!

Date:

Astronomy

Feb. 25, 2014 Rise Set
Actual Time 6:52 AM AKST 5:19 PM AKST
Civil Twilight 6:15 AM AKST 5:56 PM AKST
Nautical Twilight 5:32 AM AKST 6:39 PM AKST
Astronomical Twilight 4:50 AM AKST 7:21 PM AKST
Moon 4:23 AM AKST (2/25) 1:04 PM AKST (2/25)
Length of Visible Light 11h 41m
Length of Day
10h 26m
Waning Crescent, 17% of the Moon is Illuminated
Feb 25
Waning Crescent
Feb 28
New
Mar 8
First Quarter
Mar 16
Full
Mar 23
Last Quarter

Hourly Weather History & Observations

Time (AKST) Temp. Windchill Dew Point Humidity Pressure Visibility Wind Dir Wind Speed Gust Speed Precip Events Conditions
12:53 AM 30.9 °F 24.3 °F 17.1 °F 57% 30.11 in 10.0 mi ENE 6.9 mph - N/A   Clear
1:53 AM 30.9 °F 25.2 °F 17.1 °F 57% 30.10 in 10.0 mi NE 5.8 mph 16.1 mph N/A   Clear
3:53 AM 30.9 °F 22.8 °F 16.0 °F 54% 30.10 in 10.0 mi NE 9.2 mph - N/A   Clear
4:53 AM 30.9 °F 23.5 °F 17.1 °F 57% 30.09 in 10.0 mi NE 8.1 mph - N/A   Clear
5:53 AM 30.9 °F 23.5 °F 17.1 °F 57% 30.10 in 10.0 mi NNE 8.1 mph - N/A   Clear
6:53 AM 30.9 °F 23.5 °F 17.1 °F 57% 30.10 in 10.0 mi NE 8.1 mph - N/A   Clear
7:53 AM 30.9 °F 22.8 °F 17.1 °F 57% 30.10 in 10.0 mi NE 9.2 mph - N/A   Clear
8:53 AM 33.1 °F 26.9 °F 19.0 °F 56% 30.10 in 10.0 mi NE 6.9 mph - N/A   Overcast
9:53 AM 37.0 °F 30.4 °F 19.9 °F 50% 30.10 in 10.0 mi NNE 9.2 mph - N/A   Mostly Cloudy
10:53 AM 39.0 °F 33.4 °F 19.9 °F 46% 30.10 in 10.0 mi NNE 8.1 mph - N/A   Overcast
11:53 AM 41.0 °F 35.8 °F 21.0 °F 45% 30.10 in 10.0 mi NNE 8.1 mph - N/A   Overcast
12:53 PM 42.1 °F 36.6 °F 21.0 °F 43% 30.09 in 10.0 mi NNE 9.2 mph - N/A   Mostly Cloudy
1:53 PM 42.1 °F 35.2 °F 21.9 °F 45% 30.08 in 10.0 mi NNE 12.7 mph - N/A   Overcast
2:53 PM 41.0 °F 36.4 °F 21.9 °F 47% 30.07 in 10.0 mi Variable 6.9 mph - N/A   Overcast
3:53 PM 41.0 °F 36.4 °F 23.0 °F 49% 30.06 in 10.0 mi NE 6.9 mph - N/A   Overcast
4:53 PM 41.0 °F 36.4 °F 21.9 °F 47% 30.05 in 10.0 mi NE 6.9 mph - N/A   Overcast
5:53 PM 39.9 °F 35.1 °F 23.0 °F 51% 30.05 in 10.0 mi NE 6.9 mph - N/A   Overcast
6:53 PM 39.9 °F 37.8 °F 23.0 °F 51% 30.04 in 10.0 mi Variable 3.5 mph - N/A   Overcast
8:53 PM 39.9 °F 33.9 °F 24.1 °F 53% 30.02 in 10.0 mi NE 9.2 mph - N/A   Overcast
9:53 PM 39.9 °F 35.1 °F 24.1 °F 53% 30.01 in 10.0 mi NE 6.9 mph - N/A   Overcast
10:53 PM 39.0 °F 32.8 °F 25.0 °F 57% 29.99 in 10.0 mi NE 9.2 mph - N/A   Overcast
11:53 PM 39.0 °F 31.4 °F 25.0 °F 57% 29.98 in 10.0 mi NNE 12.7 mph - N/A   Overcast